When you browse on this site, cookies collect data to enhance your experience and personalize the content and advertising you see.
Visit our Privacy Policy to learn more. By continuing to use the site, you agree to this use of cookies and data.
  • In Lithuania
  • List of Countries
  • For 7 days
  • Water Temperature
  • Satellite Maps
  • Weather Map
  • Weather Widgets
  • user-avatar
    Login

    Hourly Weather Durgapur

    Today, 15 December, Saturday

    Time Temperature Precipitation Wind Pressure Humidity
    00:00 +21°C° 0 mm 2 mps 758 mmHg 35%
    01:00 +20°C° 0 mm 2 mps 757 mmHg 36%
    02:00 +20°C° 0 mm 3 mps 757 mmHg 37%
    03:00 +19°C° 0 mm 3 mps 757 mmHg 38%
    04:00 +19°C° 0 mm 3 mps 757 mmHg 39%
    05:00 +19°C° 0 mm 3 mps 757 mmHg 40%
    06:00 +18°C° 0 mm 3 mps 757 mmHg 41%
    07:00 +19°C° 0 mm 3 mps 758 mmHg 39%
    08:00 +21°C° 0 mm 4 mps 758 mmHg 37%
    09:00 +22°C° 0 mm 4 mps 759 mmHg 35%
    10:00 +25°C° 0 mm 4 mps 758 mmHg 30%
    11:00 +26°C° 0 mm 4 mps 758 mmHg 26%
    12:00 +28°C° 0 mm 4 mps 758 mmHg 21%
    13:00 +28°C° 0 mm 3 mps 757 mmHg 21%
    14:00 +28°C° 0 mm 3 mps 757 mmHg 20%
    15:00 +28°C° 0 mm 3 mps 756 mmHg 20%
    16:00 +27°C° 0 mm 2 mps 756 mmHg 21%
    17:00 +26°C° 0 mm 2 mps 756 mmHg 23%
    18:00 +25°C° 0 mm 1 mps 756 mmHg 24%
    19:00 +25°C° 0 mm 1 mps 757 mmHg 25%
    20:00 +24°C° 0 mm 1 mps 757 mmHg 26%
    21:00 +24°C° 0 mm 1 mps 758 mmHg 26%
    22:00 +23°C° 0 mm 2 mps 758 mmHg 27%
    23:00 +23°C° 0 mm 2 mps 758 mmHg 28%

    Tomorrow, 16 December, Sunday

    Time Temperature Precipitation Wind Pressure Humidity
    00:00 +23°C° 0 mm 2 mps 758 mmHg 29%
    01:00 +21°C° 0 mm 3 mps 758 mmHg 30%
    02:00 +21°C° 0 mm 3 mps 758 mmHg 30%
    03:00 +21°C° 0 mm 3 mps 757 mmHg 30%
    04:00 +21°C° 0 mm 2 mps 757 mmHg 31%
    05:00 +21°C° 0 mm 2 mps 757 mmHg 32%
    06:00 +20°C° 0 mm 2 mps 757 mmHg 33%
    07:00 +20°C° 0 mm 2 mps 758 mmHg 34%
    08:00 +20°C° 0 mm 2 mps 758 mmHg 35%
    09:00 +20°C° 0 mm 2 mps 759 mmHg 35%
    10:00 +20°C° 0.2 mm 2 mps 759 mmHg 37%
    11:00 +21°C° 0.2 mm 1 mps 759 mmHg 38%
    12:00 +21°C° 0.2 mm 1 mps 758 mmHg 40%
    13:00 +21°C° 0.3 mm 1 mps 758 mmHg 41%
    14:00 +21°C° 0.3 mm 1 mps 757 mmHg 42%
    15:00 +21°C° 0.3 mm 1 mps 757 mmHg 43%
    16:00 +21°C° 0.1 mm 1 mps 757 mmHg 44%
    17:00 +21°C° 0.1 mm 1 mps 757 mmHg 45%
    18:00 +20°C° 0.1 mm 1 mps 757 mmHg 46%
    19:00 +20°C° 0.4 mm 1 mps 757 mmHg 48%
    20:00 +20°C° 0.4 mm 1 mps 757 mmHg 51%
    21:00 +20°C° 0.4 mm 1 mps 758 mmHg 53%
    22:00 +19°C° 1.8 mm 1 mps 758 mmHg 59%
    23:00 +17°C° 1.8 mm 2 mps 758 mmHg 65%

    Day after tomorrow, 17 December, Monday

    Time Temperature Precipitation Wind Pressure Humidity
    00:00 +17°C° 1.8 mm 2 mps 758 mmHg 71%
    01:00 +17°C° 1.2 mm 2 mps 758 mmHg 73%
    02:00 +17°C° 1.2 mm 3 mps 758 mmHg 74%
    03:00 +17°C° 1.2 mm 3 mps 758 mmHg 76%
    04:00 +17°C° 0.7 mm 3 mps 758 mmHg 76%
    05:00 +17°C° 0.7 mm 3 mps 758 mmHg 77%
    06:00 +17°C° 0.7 mm 2 mps 758 mmHg 77%
    07:00 +17°C° 0.2 mm 3 mps 758 mmHg 77%
    08:00 +18°C° 0.2 mm 3 mps 758 mmHg 76%
    09:00 +18°C° 0.2 mm 3 mps 759 mmHg 75%
    10:00 +19°C° 0 mm 3 mps 758 mmHg 72%
    11:00 +19°C° 0 mm 3 mps 758 mmHg 69%
    12:00 +20°C° 0 mm 3 mps 758 mmHg 67%
    13:00 +20°C° 0 mm 3 mps 757 mmHg 65%
    14:00 +21°C° 0 mm 4 mps 756 mmHg 63%
    15:00 +21°C° 0 mm 4 mps 755 mmHg 61%
    16:00 +20°C° 0.6 mm 4 mps 755 mmHg 64%
    17:00 +20°C° 0.6 mm 4 mps 756 mmHg 67%
    18:00 +19°C° 0.6 mm 4 mps 756 mmHg 71%
    19:00 +19°C° 0.5 mm 4 mps 756 mmHg 72%
    20:00 +18°C° 0.5 mm 4 mps 757 mmHg 74%
    21:00 +17°C° 0.5 mm 5 mps 757 mmHg 75%
    22:00 +16°C° 2.1 mm 5 mps 757 mmHg 79%
    23:00 +16°C° 2.1 mm 5 mps 757 mmHg 82%

    18 December, Tuesday

    Time Temperature Precipitation Wind Pressure Humidity
    00:00 +16°C° 2.1 mm 5 mps 756 mmHg 86%
    01:00 +16°C° 1 mm 5 mps 756 mmHg 86%
    02:00 +16°C° 1 mm 5 mps 755 mmHg 86%
    03:00 +17°C° 1 mm 4 mps 755 mmHg 87%
    04:00 +17°C° 0.2 mm 4 mps 755 mmHg 86%
    05:00 +17°C° 0.2 mm 4 mps 755 mmHg 86%
    06:00 +17°C° 0.2 mm 4 mps 755 mmHg 86%
    07:00 +17°C° 0 mm 4 mps 755 mmHg 84%
    08:00 +18°C° 0 mm 4 mps 756 mmHg 83%
    09:00 +18°C° 0 mm 4 mps 756 mmHg 82%
    10:00 +19°C° 0 mm 4 mps 756 mmHg 80%
    11:00 +19°C° 0 mm 4 mps 756 mmHg 78%
    12:00 +20°C° 0 mm 4 mps 756 mmHg 76%
    13:00 +20°C° 0 mm 4 mps 755 mmHg 75%
    14:00 +21°C° 0 mm 4 mps 754 mmHg 73%
    15:00 +21°C° 0 mm 4 mps 754 mmHg 72%
    16:00 +20°C° 0.1 mm 4 mps 754 mmHg 75%
    17:00 +20°C° 0.1 mm 4 mps 754 mmHg 77%
    18:00 +19°C° 0.1 mm 4 mps 755 mmHg 80%
    19:00 +19°C° 0 mm 3 mps 755 mmHg 81%
    20:00 +18°C° 0 mm 3 mps 756 mmHg 82%
    21:00 +18°C° 0 mm 2 mps 756 mmHg 83%
    22:00 +18°C° 0 mm 2 mps 756 mmHg 84%
    23:00 +17°C° 0 mm 2 mps 756 mmHg 86%

    19 December, Wednesday

    Time Temperature Precipitation Wind Pressure Humidity
    00:00 +17°C° 0 mm 2 mps 756 mmHg 87%
    01:00 +17°C° 0 mm 2 mps 755 mmHg 87%
    02:00 +17°C° 0 mm 2 mps 755 mmHg 88%
    03:00 +16°C° 0 mm 2 mps 755 mmHg 88%
    04:00 +16°C° 0 mm 2 mps 755 mmHg 88%
    05:00 +16°C° 0 mm 2 mps 755 mmHg 88%
    06:00 +16°C° 0 mm 2 mps 755 mmHg 89%
    07:00 +17°C° 0 mm 2 mps 756 mmHg 82%
    08:00 +18°C° 0 mm 2 mps 757 mmHg 75%
    09:00 +19°C° 0 mm 2 mps 758 mmHg 68%
    10:00 +21°C° 0 mm 3 mps 757 mmHg 59%
    11:00 +22°C° 0 mm 3 mps 757 mmHg 51%
    12:00 +25°C° 0 mm 3 mps 757 mmHg 42%
    13:00 +25°C° 0 mm 3 mps 756 mmHg 40%
    14:00 +26°C° 0 mm 3 mps 755 mmHg 38%
    15:00 +26°C° 0 mm 3 mps 755 mmHg 35%
    16:00 +25°C° 0 mm 2 mps 755 mmHg 39%
    17:00 +24°C° 0 mm 2 mps 755 mmHg 43%
    18:00 +23°C° 0 mm 2 mps 756 mmHg 46%
    19:00 +21°C° 0 mm 2 mps 756 mmHg 48%
    20:00 +20°C° 0 mm 2 mps 757 mmHg 51%
    21:00 +20°C° 0 mm 2 mps 757 mmHg 53%
    22:00 +19°C° 0 mm 2 mps 757 mmHg 54%
    23:00 +20°C° 0 mm 1 mps 757 mmHg 55%

    20 December, Thursday

    Time Temperature Precipitation Wind Pressure Humidity
    00:00 +19°C° 0 mm 1 mps 757 mmHg 57%
    01:00 +19°C° 0 mm 1 mps 757 mmHg 57%
    02:00 +18°C° 0 mm 1 mps 757 mmHg 58%
    03:00 +18°C° 0 mm 1 mps 756 mmHg 58%
    04:00 +18°C° 0 mm 1 mps 756 mmHg 58%
    05:00 +16°C° 0 mm 1 mps 756 mmHg 59%
    06:00 +16°C° 0 mm 1 mps 756 mmHg 59%
    07:00 +17°C° 0 mm 2 mps 757 mmHg 55%
    08:00 +19°C° 0 mm 2 mps 758 mmHg 51%
    09:00 +20°C° 0 mm 2 mps 758 mmHg 47%
    10:00 +21°C° 0 mm 2 mps 758 mmHg 41%
    11:00 +24°C° 0 mm 2 mps 757 mmHg 35%
    12:00 +25°C° 0 mm 2 mps 757 mmHg 29%
    13:00 +26°C° 0 mm 2 mps 756 mmHg 28%
    14:00 +26°C° 0 mm 3 mps 755 mmHg 26%
    15:00 +27°C° 0 mm 3 mps 754 mmHg 24%
    16:00 +25°C° 0 mm 2 mps 754 mmHg 27%
    17:00 +24°C° 0 mm 2 mps 755 mmHg 30%
    18:00 +21°C° 0 mm 2 mps 755 mmHg 33%
    19:00 +21°C° 0 mm 2 mps 755 mmHg 35%
    20:00 +20°C° 0 mm 2 mps 755 mmHg 37%
    21:00 +20°C° 0 mm 1 mps 756 mmHg 39%
    22:00 +20°C° 0 mm 1 mps 756 mmHg 40%
    23:00 +19°C° 0 mm 1 mps 755 mmHg 42%
    Show more